Back to catalog

SITRO-AIS-16

AliveCommunicationsSSO
NORAD 61737·PAYLOAD·🇷🇺 Russia
This satellite name has not been confirmed by official sources yet.

Launched Nov 4, 2024 from Vostochny Cosmodrome

Loading…

Next Passes (next 24 hours)

TLE

FreshSource: Space-Track

Epoch: Sep 14, 2026, 22:41 UTC

1 61737U 24199C   26257.94581030  .00002235  00000-0  19396-3 0  9994
2 61737  97.3189  91.6863 0008019 117.3575 242.8465 14.97960573145252

Track SITRO-AIS-16 in real time with AllMySat

Download on the App Store